When you browse on this site, cookies collect data to enhance your experience and personalize the content and advertising you see.
Visit our Privacy Policy to learn more. By continuing to use the site, you agree to this use of cookies and data.
  • en Suisse
  • Liste des pays
  • À 7 jours
  • Température de l'eau
  • Carte satellitaire
  • Carte météo
  • Widgets météo
  • user-avatar
    Se connecter

    Météo par heure à Yangjiang

    Ce jour, 22 Juillet, Lundi

    Heure Température Précipitation Vent Pression Humidité
    00:00 +29°C° 0 mm 2 m/s 752 mmHg 91%
    01:00 +29°C° 0 mm 2 m/s 752 mmHg 91%
    02:00 +29°C° 0 mm 2 m/s 752 mmHg 91%
    03:00 +29°C° 0 mm 1 m/s 752 mmHg 92%
    04:00 +29°C° 0 mm 1 m/s 752 mmHg 92%
    05:00 +29°C° 0 mm 1 m/s 752 mmHg 90%
    06:00 +30°C° 0 mm 1 m/s 752 mmHg 89%
    07:00 +30°C° 0 mm 1 m/s 752 mmHg 87%
    08:00 +31°C° 0 mm 2 m/s 752 mmHg 84%
    09:00 +31°C° 0 mm 2 m/s 752 mmHg 81%
    10:00 +33°C° 0 mm 3 m/s 753 mmHg 79%
    11:00 +33°C° 0 mm 3 m/s 752 mmHg 78%
    12:00 +33°C° 0 mm 3 m/s 752 mmHg 78%
    13:00 +33°C° 0 mm 4 m/s 751 mmHg 77%
    14:00 +33°C° 0.1 mm 3 m/s 751 mmHg 78%
    15:00 +33°C° 0.1 mm 3 m/s 751 mmHg 78%
    16:00 +33°C° 0.1 mm 3 m/s 750 mmHg 78%
    17:00 +31°C° 0.1 mm 3 m/s 751 mmHg 82%
    18:00 +30°C° 0.1 mm 2 m/s 751 mmHg 86%
    19:00 +30°C° 0.1 mm 2 m/s 751 mmHg 89%
    20:00 +29°C° 0 mm 2 m/s 752 mmHg 90%
    21:00 +29°C° 0 mm 2 m/s 752 mmHg 91%
    22:00 +29°C° 0 mm 2 m/s 753 mmHg 92%
    23:00 +29°C° 0.1 mm 2 m/s 752 mmHg 92%

    Demain, 23 Juillet, Mardi

    Heure Température Précipitation Vent Pression Humidité
    00:00 +29°C° 0.1 mm 2 m/s 752 mmHg 92%
    01:00 +29°C° 0.1 mm 2 m/s 752 mmHg 92%
    02:00 +29°C° 0.3 mm 2 m/s 752 mmHg 92%
    03:00 +29°C° 0.3 mm 2 m/s 751 mmHg 92%
    04:00 +29°C° 0.3 mm 2 m/s 751 mmHg 92%
    05:00 +29°C° 0 mm 2 m/s 751 mmHg 90%
    06:00 +30°C° 0 mm 2 m/s 752 mmHg 89%
    07:00 +30°C° 0 mm 2 m/s 752 mmHg 87%
    08:00 +31°C° 0 mm 3 m/s 752 mmHg 82%
    09:00 +33°C° 0 mm 3 m/s 752 mmHg 77%
    10:00 +34°C° 0 mm 3 m/s 752 mmHg 73%
    11:00 +34°C° 0 mm 4 m/s 752 mmHg 71%
    12:00 +35°C° 0 mm 4 m/s 752 mmHg 70%
    13:00 +35°C° 0 mm 4 m/s 751 mmHg 69%
    14:00 +34°C° 0 mm 4 m/s 751 mmHg 71%
    15:00 +34°C° 0 mm 4 m/s 750 mmHg 72%
    16:00 +34°C° 0 mm 4 m/s 750 mmHg 74%
    17:00 +33°C° 0 mm 3 m/s 750 mmHg 78%
    18:00 +31°C° 0 mm 3 m/s 750 mmHg 82%
    19:00 +30°C° 0 mm 2 m/s 751 mmHg 86%
    20:00 +30°C° 0 mm 2 m/s 751 mmHg 87%
    21:00 +29°C° 0 mm 2 m/s 752 mmHg 88%
    22:00 +29°C° 0 mm 2 m/s 752 mmHg 88%
    23:00 +29°C° 0.2 mm 2 m/s 752 mmHg 89%

    Après-demain, 24 Juillet, Mercredi

    Heure Température Précipitation Vent Pression Humidité
    00:00 +29°C° 0.2 mm 1 m/s 752 mmHg 90%
    01:00 +29°C° 0.2 mm 1 m/s 751 mmHg 90%
    02:00 +29°C° 0.1 mm 1 m/s 751 mmHg 90%
    03:00 +29°C° 0.1 mm 1 m/s 751 mmHg 89%
    04:00 +29°C° 0.1 mm 1 m/s 751 mmHg 89%
    05:00 +29°C° 0 mm 2 m/s 751 mmHg 86%
    06:00 +30°C° 0 mm 2 m/s 752 mmHg 83%
    07:00 +31°C° 0 mm 2 m/s 752 mmHg 80%
    08:00 +33°C° 0.1 mm 3 m/s 752 mmHg 77%
    09:00 +34°C° 0.1 mm 4 m/s 752 mmHg 73%
    10:00 +35°C° 0.1 mm 4 m/s 753 mmHg 69%
    11:00 +35°C° 0.1 mm 4 m/s 752 mmHg 69%
    12:00 +35°C° 0.1 mm 5 m/s 752 mmHg 69%
    13:00 +35°C° 0.1 mm 5 m/s 751 mmHg 68%
    14:00 +35°C° 0.1 mm 5 m/s 751 mmHg 70%
    15:00 +34°C° 0.1 mm 5 m/s 750 mmHg 71%
    16:00 +34°C° 0.1 mm 4 m/s 750 mmHg 73%
    17:00 +33°C° 0 mm 4 m/s 750 mmHg 77%
    18:00 +31°C° 0 mm 3 m/s 751 mmHg 82%
    19:00 +30°C° 0 mm 2 m/s 751 mmHg 86%
    20:00 +30°C° 0 mm 2 m/s 752 mmHg 88%
    21:00 +30°C° 0 mm 2 m/s 753 mmHg 89%
    22:00 +29°C° 0 mm 2 m/s 753 mmHg 90%
    23:00 +29°C° 0.1 mm 2 m/s 753 mmHg 91%

    25 Juillet, Jeudi

    Heure Température Précipitation Vent Pression Humidité
    00:00 +29°C° 0.1 mm 2 m/s 753 mmHg 92%
    01:00 +29°C° 0.1 mm 2 m/s 752 mmHg 93%
    02:00 +29°C° 0.3 mm 2 m/s 752 mmHg 93%
    03:00 +29°C° 0.3 mm 2 m/s 752 mmHg 92%
    04:00 +29°C° 0.3 mm 2 m/s 752 mmHg 91%
    05:00 +30°C° 0.1 mm 2 m/s 752 mmHg 87%
    06:00 +31°C° 0.1 mm 2 m/s 753 mmHg 83%
    07:00 +31°C° 0.1 mm 2 m/s 753 mmHg 79%
    08:00 +33°C° 0.1 mm 3 m/s 753 mmHg 76%
    09:00 +34°C° 0.1 mm 3 m/s 753 mmHg 73%
    10:00 +35°C° 0.1 mm 4 m/s 753 mmHg 70%
    11:00 +35°C° 0.2 mm 4 m/s 753 mmHg 70%
    12:00 +35°C° 0.2 mm 4 m/s 752 mmHg 71%
    13:00 +35°C° 0.2 mm 5 m/s 752 mmHg 71%
    14:00 +35°C° 0.1 mm 5 m/s 751 mmHg 72%
    15:00 +34°C° 0.1 mm 4 m/s 751 mmHg 73%
    16:00 +34°C° 0.1 mm 4 m/s 751 mmHg 74%
    17:00 +33°C° 0 mm 4 m/s 751 mmHg 77%
    18:00 +31°C° 0 mm 3 m/s 751 mmHg 81%
    19:00 +30°C° 0 mm 3 m/s 752 mmHg 85%
    20:00 +30°C° 0 mm 2 m/s 752 mmHg 87%
    21:00 +30°C° 0 mm 2 m/s 753 mmHg 88%
    22:00 +29°C° 0 mm 2 m/s 753 mmHg 90%
    23:00 +29°C° 0 mm 2 m/s 753 mmHg 91%

    26 Juillet, Vendredi

    Heure Température Précipitation Vent Pression Humidité
    00:00 +29°C° 0 mm 2 m/s 753 mmHg 91%
    01:00 +29°C° 0 mm 2 m/s 752 mmHg 92%
    02:00 +29°C° 0.1 mm 2 m/s 752 mmHg 92%
    03:00 +29°C° 0.1 mm 2 m/s 752 mmHg 92%
    04:00 +29°C° 0.1 mm 2 m/s 752 mmHg 92%
    05:00 +30°C° 0.2 mm 2 m/s 752 mmHg 89%
    06:00 +30°C° 0.2 mm 2 m/s 752 mmHg 86%
    07:00 +31°C° 0.2 mm 2 m/s 753 mmHg 83%
    08:00 +32°C° 0 mm 2 m/s 753 mmHg 77%
    09:00 +34°C° 0 mm 3 m/s 753 mmHg 71%
    10:00 +35°C° 0 mm 3 m/s 753 mmHg 65%
    11:00 +35°C° 0 mm 4 m/s 753 mmHg 65%
    12:00 +35°C° 0 mm 4 m/s 752 mmHg 65%
    13:00 +35°C° 0 mm 5 m/s 751 mmHg 65%
    14:00 +35°C° 0 mm 5 m/s 751 mmHg 66%
    15:00 +34°C° 0 mm 4 m/s 751 mmHg 68%
    16:00 +34°C° 0 mm 4 m/s 750 mmHg 70%
    17:00 +33°C° 0 mm 4 m/s 751 mmHg 75%
    18:00 +31°C° 0 mm 3 m/s 751 mmHg 80%
    19:00 +30°C° 0 mm 3 m/s 751 mmHg 85%
    20:00 +30°C° 0 mm 3 m/s 752 mmHg 87%
    21:00 +30°C° 0 mm 3 m/s 752 mmHg 88%
    22:00 +30°C° 0 mm 3 m/s 752 mmHg 89%
    23:00 +29°C° 0.5 mm 3 m/s 752 mmHg 90%

    27 Juillet, Samedi

    Heure Température Précipitation Vent Pression Humidité
    00:00 +29°C° 0.5 mm 3 m/s 752 mmHg 91%
    01:00 +29°C° 0.5 mm 3 m/s 752 mmHg 91%
    02:00 +29°C° 1 mm 3 m/s 752 mmHg 92%
    03:00 +29°C° 1 mm 3 m/s 752 mmHg 92%
    04:00 +29°C° 1 mm 3 m/s 752 mmHg 92%
    05:00 +29°C° 1.1 mm 3 m/s 752 mmHg 90%
    06:00 +30°C° 1.1 mm 3 m/s 752 mmHg 87%
    07:00 +30°C° 1.1 mm 4 m/s 753 mmHg 85%
    08:00 +32°C° 0.8 mm 4 m/s 753 mmHg 81%
    09:00 +33°C° 0.8 mm 4 m/s 753 mmHg 77%
    10:00 +34°C° 0.8 mm 5 m/s 753 mmHg 73%
    11:00 +34°C° 0.1 mm 5 m/s 752 mmHg 73%
    12:00 +34°C° 0.1 mm 5 m/s 752 mmHg 73%
    13:00 +34°C° 0.1 mm 5 m/s 752 mmHg 73%
    14:00 +34°C° 0.2 mm 5 m/s 751 mmHg 75%
    15:00 +33°C° 0.2 mm 5 m/s 751 mmHg 77%
    16:00 +33°C° 0.2 mm 5 m/s 751 mmHg 79%
    17:00 +32°C° 0.1 mm 4 m/s 751 mmHg 82%
    18:00 +30°C° 0.1 mm 4 m/s 751 mmHg 86%
    19:00 +30°C° 0.1 mm 3 m/s 752 mmHg 90%
    20:00 +29°C° 0.1 mm 3 m/s 752 mmHg 90%
    21:00 +29°C° 0.1 mm 4 m/s 753 mmHg 90%
    22:00 +29°C° 0.1 mm 4 m/s 753 mmHg 90%
    23:00 +29°C° 0.3 mm 4 m/s 753 mmHg 90%
    Voir plus